Total_Precipitation_Accumulation
1.52 1.51 1.63 1.79 1.88 1.96 2.12 2.08 2.03 2.06 2.18 2.22 2.23 2.25 2.16 2.05 2.19 2.42 2.51 2.72 2.84 2.90 2.88 2.95 2.94 3.09 3.11 3.00 3.13 3.25 3.48 3.67 3.22 2.58 2.68 2.84 2.81 2.59 2.41 2.20 2.05 2.00 1.96
1.50 1.57 1.67 1.78 1.83 1.89 1.99 2.13 2.19 2.17 2.28 2.34 2.40 2.35 2.10 2.06 2.18 2.28 2.39 2.61 2.74 2.82 2.96 3.10 2.86 3.01 3.13 3.06 3.07 3.04 3.19 3.51 3.33 3.06 2.98 3.08 3.03 2.77 2.56 2.31 1.95 1.75 1.78
1.70 1.73 1.68 1.70 1.69 1.79 1.94 2.05 2.17 2.25 2.34 2.41 2.41 2.30 2.22 2.25 2.33 2.40 2.50 2.64 2.70 2.75 2.88 2.88 2.82 2.97 2.84 2.95 3.05 2.97 2.99 3.03 3.18 3.04 2.83 2.93 2.88 2.71 2.56 2.27 2.01 1.97 1.70
1.62 1.68 1.71 1.74 1.81 1.93 2.04 2.12 2.21 2.21 2.24 2.21 2.16 2.25 2.31 2.35 2.39 2.42 2.42 2.43 2.48 2.53 2.52 2.43 2.37 2.42 2.47 2.70 2.70 2.69 2.80 2.90 2.99 2.87 2.77 2.82 2.84 2.88 2.74 2.41 2.27 2.12 1.88
1.64 1.61 1.69 1.87 1.93 1.98 2.00 2.03 2.10 2.11 2.00 2.15 2.15 2.25 2.33 2.28 2.15 2.27 2.30 2.23 2.39 2.31 2.15 2.10 2.10 2.21 2.26 2.35 2.21 2.33 2.56 2.63 2.70 2.77 2.79 2.94 2.93 3.07 2.94 2.64 2.50 2.39 2.09
1.63 1.72 1.80 1.85 1.83 1.95 1.98 1.97 1.99 2.05 2.10 2.15 2.16 2.27 2.33 2.15 2.23 2.28 2.32 2.31 2.33 2.24 2.18 2.11 1.99 2.02 2.04 2.05 2.03 2.07 2.25 2.39 2.56 2.73 2.75 2.84 2.90 2.92 2.95 2.81 2.69 2.49 2.17
1.63 1.68 1.88 1.99 1.92 2.02 2.05 2.06 2.04 2.06 2.21 2.27 2.35 2.40 2.32 2.44 2.43 2.26 2.29 2.22 2.22 2.24 2.26 2.25 1.96 1.77 1.96 1.92 2.04 1.99 1.93 2.00 2.13 2.29 2.36 2.48 2.73 2.87 3.00 2.92 2.95 2.79 2.43
1.72 1.85 2.15 2.33 2.18 2.17 2.20 2.21 2.26 2.38 2.41 2.46 2.49 2.40 2.36 2.44 2.48 2.17 2.12 2.00 2.03 2.11 2.15 2.21 2.23 2.14 2.15 2.19 2.22 2.14 2.00 1.95 2.07 2.04 2.03 2.24 2.63 2.98 3.06 3.01 3.10 2.95 2.56
1.94 2.11 2.39 2.62 2.72 2.66 2.47 2.52 2.61 2.61 2.57 2.63 2.68 2.65 2.52 2.57 2.47 2.11 1.99 1.85 1.92 1.98 2.03 2.02 2.06 1.99 2.08 2.01 1.95 1.89 1.84 1.78 1.78 1.80 1.78 1.90 2.21 2.63 2.85 2.90 3.02 2.97 2.68
2.10 2.13 2.35 2.63 2.74 2.71 2.66 2.84 2.94 2.82 2.72 2.75 2.63 2.50 2.38 2.40 2.38 2.05 1.87 1.74 1.83 1.90 1.99 1.96 1.95 1.87 1.86 1.75 1.63 1.63 1.57 1.59 1.72 1.73 1.68 1.67 1.78 2.10 2.48 2.47 2.56 2.74 2.50
2.22 2.23 2.36 2.60 2.89 2.85 2.90 2.97 3.04 3.03 3.03 3.00 2.88 2.72 2.51 2.42 2.45 2.15 1.94 1.75 1.79 1.83 1.75 1.72 1.74 1.75 1.55 1.49 1.45 1.43 1.46 1.50 1.66 1.70 1.68 1.70 1.79 1.90 2.03 2.13 2.26 2.38 2.38
2.33 2.32 2.38 2.65 2.78 2.81 2.96 3.03 3.15 3.28 3.25 3.21 3.16 2.87 2.74 2.64 2.38 2.10 1.94 1.89 1.93 1.93 1.84 1.78 1.79 1.71 1.47 1.39 1.24 1.19 1.28 1.27 1.30 1.44 1.48 1.50 1.59 1.67 1.78 1.97 2.18 2.28 2.31
2.09 2.12 2.24 2.42 2.56 2.74 2.86 2.81 2.90 3.06 3.01 2.98 2.93 2.76 2.76 2.85 2.66 2.22 1.93 1.85 1.91 1.92 1.98 2.05 1.87 1.71 1.58 1.45 1.41 1.34 1.24 1.15 1.22 1.31 1.35 1.34 1.43 1.57 1.77 1.98 2.18 2.43 2.41
1.95 1.95 2.10 2.34 2.49 2.61 2.68 2.64 2.70 2.75 2.79 2.83 2.82 2.72 2.71 2.82 2.78 2.46 2.12 1.91 1.83 1.76 1.77 1.77 1.68 1.63 1.56 1.43 1.37 1.27 1.12 1.13 1.20 1.20 1.29 1.37 1.49 1.67 1.77 1.79 1.92 2.17 2.37
2.09 2.09 2.22 2.32 2.40 2.56 2.65 2.68 2.70 2.67 2.65 2.66 2.62 2.54 2.53 2.61 2.66 2.49 2.19 1.98 1.89 1.83 1.77 1.74 1.71 1.72 1.62 1.52 1.44 1.38 1.39 1.40 1.33 1.26 1.32 1.44 1.50 1.59 1.69 1.76 1.86 1.93 1.97
2.29 2.26 2.25 2.22 2.29 2.29 2.31 2.27 2.26 2.22 2.23 2.19 2.15 2.06 2.02 2.19 2.22 1.94 1.79 1.81 1.82 1.79 1.67 1.64 1.69 1.73 1.68 1.64 1.60 1.54 1.52 1.52 1.46 1.44 1.46 1.53 1.59 1.62 1.71 1.86 2.00 2.03 1.93
2.38 2.24 2.14 2.07 2.06 2.07 2.11 2.16 2.20 2.12 2.07 1.99 1.90 1.76 1.64 1.84 1.88 1.73 1.64 1.63 1.60 1.57 1.48 1.53 1.58 1.65 1.71 1.63 1.52 1.45 1.43 1.47 1.57 1.58 1.57 1.60 1.67 1.71 1.79 1.89 2.06 2.21 2.15
2.39 2.28 2.08 1.98 1.97 1.96 2.09 2.15 2.14 2.12 2.09 1.89 1.75 1.68 1.53 1.58 1.67 1.62 1.54 1.42 1.36 1.33 1.32 1.45 1.55 1.61 1.69 1.66 1.54 1.51 1.55 1.59 1.60 1.62 1.65 1.67 1.74 1.79 1.84 1.90 2.00 2.14 2.18
2.34 2.25 2.12 2.09 2.10 2.01 1.96 2.01 2.01 1.99 2.04 1.95 1.77 1.73 1.73 1.69 1.74 1.69 1.53 1.32 1.34 1.34 1.36 1.41 1.46 1.54 1.59 1.60 1.61 1.65 1.67 1.71 1.67 1.67 1.73 1.79 1.81 1.91 1.89 1.93 2.06 2.22 2.24
2.02 2.03 2.01 2.06 2.06 2.00 2.00 2.01 2.05 2.10 2.13 2.04 1.91 1.81 1.71 1.69 1.68 1.68 1.54 1.43 1.41 1.37 1.36 1.42 1.50 1.57 1.63 1.66 1.76 1.86 1.86 1.89 1.91 1.88 1.91 1.96 1.91 1.92 1.94 1.96 2.06 2.09 2.11
1.78 1.71 1.68 1.65 1.71 1.81 1.88 1.98 2.09 2.15 2.19 2.10 1.89 1.74 1.65 1.50 1.52 1.49 1.51 1.56 1.55 1.58 1.61 1.61 1.66 1.74 1.79 1.86 1.95 2.04 2.06 2.05 2.07 2.02 2.00 2.08 2.08 2.07 2.07 2.01 2.00 2.10 2.11
1.83 1.65 1.49 1.45 1.50 1.64 1.86 2.00 2.08 2.03 1.98 1.93 1.83 1.74 1.75 1.52 1.41 1.41 1.46 1.49 1.52 1.56 1.59 1.61 1.61 1.68 1.74 1.81 1.88 1.94 1.97 1.98 2.00 2.02 1.99 1.99 2.01 1.99 2.05 2.04 1.99 2.05 2.15
1.66 1.48 1.31 1.29 1.36 1.53 1.77 2.09 2.10 1.88 1.76 1.73 1.78 1.76 1.71 1.62 1.51 1.46 1.47 1.47 1.45 1.43 1.44 1.53 1.56 1.61 1.68 1.70 1.71 1.77 1.78 1.76 1.76 1.83 1.92 1.89 1.91 1.95 1.98 2.03 2.04 2.06 2.14
1.54 1.40 1.29 1.28 1.34 1.47 1.73 2.03 1.96 1.79 1.68 1.69 1.73 1.75 1.71 1.67 1.59 1.53 1.52 1.52 1.49 1.43 1.41 1.48 1.51 1.53 1.57 1.63 1.60 1.56 1.53 1.50 1.48 1.58 1.74 1.86 1.91 1.97 1.96 1.99 2.05 2.05 2.14
1.45 1.42 1.36 1.38 1.43 1.59 1.85 2.03 1.93 1.80 1.73 1.71 1.71 1.77 1.79 1.74 1.69 1.66 1.66 1.69 1.67 1.65 1.58 1.47 1.45 1.42 1.40 1.43 1.48 1.47 1.51 1.38 1.29 1.32 1.41 1.57 1.65 1.76 1.84 1.90 2.05 2.11 2.13
1.44 1.45 1.45 1.49 1.56 1.69 1.82 1.87 1.84 1.79 1.82 1.79 1.75 1.77 1.85 1.87 1.85 1.85 1.85 1.79 1.72 1.65 1.53 1.42 1.36 1.36 1.33 1.26 1.22 1.23 1.24 1.18 1.15 1.21 1.24 1.31 1.42 1.53 1.65 1.75 1.82 1.93 1.96